HST
1 20580U 90037B 24289.96080940 .00012648 00000-0 55716-3 0 9993
2 20580 28.4685 254.6337 0002594 274.1177 85.9119 15.20267027695419
ISS (ZARYA)
1 25544U 98067A 24290.31759140 .00023260 00000-0 41482-3 0 9992
2 25544 51.6386 75.4196 0009361 75.3000 2.5236 15.49927186477331
CXO
1 25867U 99040B 24292.14899531 .00000890 00000-0 00000-0 0 9996
2 25867 43.8911 143.9268 8763916 302.7950 0.4259 0.37813126 15024